Regional Weather Roundup
Issued by NWS Charleston, SC

Current Version | Previous Version | Graphics & Text | Print | Product List | Glossary On
Versions: 1 2 3 4 5 6 7 8 9 10 11 12 13 14 15 16 17 18 19 20 21 22 23 24 25 26 27 28 29 30 31 32 33 34 35 36 37 38 39 40 41 42 43 44 45 46 47 48 49 50
000
ASUS42 KCHS 251427
RWRCHS

REGIONAL WEATHER ROUNDUP
NATIONAL WEATHER SERVICE CHARLESTON SC
1000 AM EDT MON MAY 25 2015

NOTE: "FAIR" INDICATES FEW OR NO CLOUDS BELOW 12,000 FEET WITH NO
SIGNIFICANT WEATHER AND/OR OBSTRUCTIONS TO VISIBILITY.

NOT ALL STATIONS ARE QUALITY CONTROLLED BY THE NATIONAL
WEATHER SERVICE. USE DATA WITH CAUTION...ESPECIALLY
DEWPOINT OBSERVATIONS.

SCZ027-030-031-034>040-042>050-251500-
...SOUTHEAST SOUTH CAROLINA...

CITY           SKY/WX    TMP DP  RH WIND       PRES   REMARKS
N CHARLESTON   PTSUNNY   78  63  59 SE13G18   30.32R
WATERFRONT PAR   N/A     77  66  68 E13       30.29R
MOUNT PLEASANT FAIR      77  64  65 E7        30.32S
JOHNS ISLAND   PTSUNNY   79  66  65 E13       30.32S
PINOPOLIS        N/A     77  64  65 VRB3      30.24R
MONCKS CORNER  CLOUDY    77  63  61 SE7       30.33R
SUMMERVILLE    CLOUDY    75  64  69 CALM      30.33S
BEAUFORT MCAS  CLOUDY    78  67  68 E9        30.30R
BEAUFORT ARPT  CLOUDY    79  68  69 E12       30.30S
HILTON HEAD IS PTSUNNY   79  70  73 E5        30.31R
WALTERBORO     CLOUDY    72  63  73 E7        30.33S
ALLENDALE      CLOUDY    77  64  65 SE9       30.31R

...SOUTHERN MIDLANDS AND PEE DEE...

CITY           SKY/WX    TMP DP  RH WIND       PRES   REMARKS
GEORGETOWN     NOT AVBL
KINGSTREE      NOT AVBL
ORANGEBURG     CLOUDY    74  60  61 SE8       30.33S
BARNWELL       CLOUDY    77  64  65 E8        30.33R
AIKEN          CLOUDY    75  59  57 SE9       30.35S
MANNING        FAIR      75  57  53 SE7       30.34S
COLUMBIA       MOSUNNY   75  60  59 SE12      30.32S
SUMTER         MOSUNNY   76  58  54 SE13      30.32S
FLORENCE       SUNNY     76  59  55 S10       30.34S
MYRTLE BEACH   SUNNY     79  59  50 SE13      30.36R
N MYRTLE BEACH SUNNY     76  59  55 SE8       30.35R

$$

GAZ063-065-086>088-099>101-113>116-118-119-134>141-150-251500-
...SOUTHEAST GEORGIA...

CITY           SKY/WX    TMP DP  RH WIND       PRES   REMARKS
SAVANNAH ARPT  CLOUDY    78  67  68 SE10      30.29S
HUNTER AAF     MOSUNNY   78  70  77 E10       30.26S
FORT STEWART   PTSUNNY   81  70  69 E12       30.26R
STATESBORO     CLOUDY    78  71  78 SE8       30.29F
SYLVANIA       CLOUDY    79  70  73 SE7       30.31S
CLAXTON        PTSUNNY   81  72  74 E8        30.28S

...CSRA...CENTRAL AND FAR SOUTHEAST GEORGIA...

CITY           SKY/WX    TMP DP  RH WIND       PRES   REMARKS
THOMSON        CLOUDY    75  67  75 SE7       30.36R
AUGUSTA-BUSH   CLOUDY    74  63  68 SE9       30.30S
AUGUSTA-DANIEL CLOUDY    75  62  64 SE6       30.32R
SWAINSBORO     CLOUDY    81  70  69 SE9       30.29S
VIDALIA        CLOUDY    79  70  73 SE6       30.28S
EASTMAN        CLOUDY    78  71  76 E7        30.29S
HAZLEHURST     CLOUDY    80  72  75 CALM      30.25F
ALMA           PTSUNNY   79  71  76 SE9       30.25S
WAYCROSS       PTSUNNY   83  74  74 SE9       30.25S HX  90
JESUP          CLOUDY    81  73  78 S7        30.27S
BAXLEY         CLOUDY    81  72  74 S9        30.25F
BRUNSWICK        N/A     75  70  83 SE7       30.28S
SAINT SIMONS   NOT AVBL

$$

SCZ027-028-034-036>038-045-046-048>050-GAZ119-141-251500-
...LAKE AND SUPPLEMENTAL COASTAL OBSERVATIONS...

STATION/POSITION TIME  TEMP    WIND        PRES    WAVE   SWELL
                       AIR SEA DIR/SP/G            HT/PER HT/PER/DIR
                 (UTC) (F)     (DEG/KT/KT) (MB)    (FT/S) (FT/S/D)
UPR LAKE MARION  NOT AVBL
WINYAH BAY       1300   75     110/  9     1026.0S
LAKE MURRAY      1300   71     130/  6/  8 1026.4R
ACE BASIN NERRS  NOT AVBL
FORT PULASKI     1400   76 77   70/  9/ 11 1026.4R
SAPELO ISLAND    1400   76     110/  3     1025.0S

$$

ANZ835-935-AMZ111-154-330-350-352-354-370-450-454-472-251500-
...C-MAN AND BUOY OBSERVATIONS...

STATION/POSITION TIME  TEMP    WIND        PRES    WAVE   SWELL
                       AIR SEA DIR/SP/G            HT/PER HT/PER/DIR
                 (UTC) (F)     (DEG/KT/KT) (MB)    (FT/S) (FT/S/D)
BUOY 41004       1350   75 75  100/ 12/ 12 1026.2R   4/ 7   3/ 7
BUOY 41008       1350   76 75  110/ 10/ 12 1025.3R   5/ 8   5/100/ 8
FOLLY BEACH CMAN 1400   75      90/ 12/ 12 1026.8R
CAPERS NEARSHORE NOT AVBL
FRIPP NEARSHORE  1300   77     100/ 12/ 16 1025.1R


STATION/POSITION TIME  TEMP    WIND        PRES    WAVE   SWELL
                       AIR SEA DIR/SP/G            HT/PER HT/PER/DIR
                 (UTC) (F)     (DEG/KT/KT) (MB)    (FT/S) (FT/S/D)
5E ST. MARYS GA  1321      78                N/A     4/ 8
FRYING PAN BUOY  1350   75 74  130/  8/ 10 1028.1F   4/ 6   3/130/ 6
BUOY 41025       1350   73 77  140/  8/ 10 1028.7R   2/ 7   2/ 70/ 7
CAPE LOOKOUT NC  1400   73     120/  7/  8 1028.2R
BUOY 41002       1350   73 74  100/ 14/ 17 1027.6R   4/ 6   2/ 70/ 7
BUOY 41010       1320   79 81  100/ 12/ 14 1024.3R
ST AUGUSTINE FL  1400   77 77  100/  9/ 10 1025.0R


$$



USA.gov is the U.S. government's official web portal to all federal, state and local government web resources and services.